Time,TemperatureF,DewpointF,PressureIn,WindDirection,WindDirectionDegrees,WindSpeedMPH,WindSpeedGustMPH,Humidity,HourlyPrecipIn,Conditions,Clouds,dailyrainin,SoftwareType,DateUTC
2013-01-22 00:00:00,9.9,5.9,29.44,West,270,1.6,5.6,84,0.17,,,4.39,WUHU216HW,2013-01-22 05:00:00,
2013-01-22 00:01:00,9.9,5.9,29.44,SSW,203,2.7,5.6,84,0.16,,,0.16,WUHU216HW,2013-01-22 05:01:00,
2013-01-22 00:05:00,9.9,6.2,29.44,SSW,203,0.9,5.6,85,0.16,,,0.16,WUHU216HW,2013-01-22 05:05:00,
2013-01-22 00:06:00,9.9,5.9,29.44,SW,225,1.1,5.6,84,0.16,,,0.16,WUHU216HW,2013-01-22 05:06:00,
2013-01-22 00:07:00,9.9,5.9,29.44,West,270,2.2,5.6,84,0.16,,,0.16,WUHU216HW,2013-01-22 05:07:00,
2013-01-22 00:11:00,9.9,6.2,29.44,West,270,1.1,4.7,85,0.16,,,0.16,WUHU216HW,2013-01-22 05:11:00,
2013-01-22 00:12:00,9.9,6.2,29.44,WNW,293,1.6,4.0,85,0.16,,,0.16,WUHU216HW,2013-01-22 05:12:00,
2013-01-22 00:16:00,9.9,5.9,29.44,SW,225,2.5,4.0,84,0.16,,,0.16,WUHU216HW,2013-01-22 05:16:00,
2013-01-22 00:17:00,9.9,6.2,29.44,West,270,0.4,4.5,85,0.16,,,0.16,WUHU216HW,2013-01-22 05:17:00,
2013-01-22 00:21:00,9.9,5.9,29.44,WSW,248,1.3,4.5,84,0.16,,,0.16,WUHU216HW,2013-01-22 05:21:00,
2013-01-22 00:22:00,9.9,6.2,29.44,South,180,1.6,4.5,85,0.16,,,0.16,WUHU216HW,2013-01-22 05:22:00,
2013-01-22 00:26:00,9.9,6.2,29.44,WSW,248,1.8,4.5,85,0.16,,,0.16,WUHU216HW,2013-01-22 05:26:00,
2013-01-22 00:27:00,9.9,6.2,29.44,WSW,248,1.8,4.3,85,0.16,,,0.16,WUHU216HW,2013-01-22 05:27:00,
2013-01-22 00:31:00,9.9,5.9,29.44,SSW,203,4.5,7.2,84,0.16,,,0.16,WUHU216HW,2013-01-22 05:31:00,
2013-01-22 00:32:00,9.9,5.9,29.44,WNW,293,2.2,7.2,84,0.16,,,0.16,WUHU216HW,2013-01-22 05:32:00,
2013-01-22 00:36:00,9.9,6.2,29.44,WNW,293,2.0,7.2,85,0.16,,,0.16,WUHU216HW,2013-01-22 05:36:00,
2013-01-22 00:37:00,9.9,6.2,29.44,SW,225,3.4,7.2,85,0.16,,,0.16,WUHU216HW,2013-01-22 05:37:00,
2013-01-22 00:41:00,9.9,6.2,29.44,ESE,113,1.3,4.9,85,0.16,,,0.16,WUHU216HW,2013-01-22 05:41:00,
2013-01-22 00:42:00,9.9,6.2,29.44,SE,135,4.7,4.9,85,0.16,,,0.16,WUHU216HW,2013-01-22 05:42:00,
2013-01-22 00:46:00,9.7,6.0,29.44,SW,225,1.8,6.3,85,0.16,,,0.16,WUHU216HW,2013-01-22 05:46:00,
2013-01-22 00:47:00,9.7,6.0,29.44,WSW,248,3.4,6.3,85,0.16,,,0.16,WUHU216HW,2013-01-22 05:47:00,
2013-01-22 00:51:00,9.7,6.0,29.44,NW,315,0.7,6.3,85,0.16,,,0.16,WUHU216HW,2013-01-22 05:51:00,
2013-01-22 00:52:00,9.7,6.0,29.44,SW,225,1.1,6.3,85,0.16,,,0.16,WUHU216HW,2013-01-22 05:52:00,
2013-01-22 00:56:00,9.5,5.9,29.44,NW,315,2.7,3.4,85,0.16,,,0.16,WUHU216HW,2013-01-22 05:56:00,
2013-01-22 00:57:00,9.5,5.9,29.44,SSW,203,2.5,3.4,85,0.16,,,0.16,WUHU216HW,2013-01-22 05:57:00,
2013-01-22 01:01:00,9.4,5.8,29.44,NNW,338,1.6,5.4,85,0.16,,,0.32,WUHU216HW,2013-01-22 06:01:00,
2013-01-22 01:02:00,9.4,5.8,29.44,SW,225,3.8,5.4,85,0.16,,,0.32,WUHU216HW,2013-01-22 06:02:00,
2013-01-22 01:03:00,9.4,5.8,29.44,West,270,3.6,5.4,85,0.16,,,0.32,WUHU216HW,2013-01-22 06:03:00,
2013-01-22 01:07:00,9.2,5.6,29.44,SW,225,1.6,5.6,85,0.16,,,0.32,WUHU216HW,2013-01-22 06:07:00,
2013-01-22 01:08:00,9.2,5.6,29.44,SW,225,2.5,5.6,85,0.16,,,0.32,WUHU216HW,2013-01-22 06:08:00,
2013-01-22 01:12:00,9.2,5.6,29.44,West,270,2.0,5.6,85,0.16,,,0.32,WUHU216HW,2013-01-22 06:12:00,
2013-01-22 01:13:00,9.2,5.6,29.44,West,270,2.5,5.6,85,0.16,,,0.32,WUHU216HW,2013-01-22 06:13:00,
2013-01-22 01:17:00,9.0,5.4,29.44,WNW,293,0.9,3.4,85,0.16,,,0.32,WUHU216HW,2013-01-22 06:17:00,
2013-01-22 01:18:00,9.0,5.4,29.44,WSW,248,1.3,3.4,85,0.16,,,0.32,WUHU216HW,2013-01-22 06:18:00,
2013-01-22 01:19:00,9.0,5.4,29.44,SW,225,4.7,4.7,85,0.16,,,0.32,WUHU216HW,2013-01-22 06:19:00,
2013-01-22 01:22:00,9.0,5.4,29.44,SW,225,2.5,5.4,85,0.16,,,0.32,WUHU216HW,2013-01-22 06:22:00,
2013-01-22 01:23:00,9.0,5.4,29.44,SW,225,2.5,5.4,85,0.16,,,0.32,WUHU216HW,2013-01-22 06:23:00,
2013-01-22 01:24:00,9.0,5.4,29.44,WNW,293,4.9,5.4,85,0.16,,,0.32,WUHU216HW,2013-01-22 06:24:00,
2013-01-22 01:28:00,9.0,5.4,29.44,WSW,248,1.1,5.4,85,0.16,,,0.32,WUHU216HW,2013-01-22 06:28:00,
2013-01-22 01:29:00,9.0,5.4,29.44,SSW,203,1.1,5.4,85,0.16,,,0.32,WUHU216HW,2013-01-22 06:29:00,
2013-01-22 01:33:00,9.0,5.7,29.45,SW,225,2.5,4.9,86,0.16,,,0.32,WUHU216HW,2013-01-22 06:33:00,
2013-01-22 01:34:00,9.0,5.7,29.45,WSW,248,1.3,4.9,86,0.16,,,0.32,WUHU216HW,2013-01-22 06:34:00,
2013-01-22 01:38:00,9.0,5.7,29.45,WSW,248,1.8,4.9,86,0.16,,,0.32,WUHU216HW,2013-01-22 06:38:00,
2013-01-22 01:39:00,9.0,5.7,29.45,SSW,203,2.7,4.9,86,0.16,,,0.32,WUHU216HW,2013-01-22 06:39:00,
2013-01-22 01:43:00,9.0,5.7,29.45,WSW,248,2.9,4.9,86,0.16,,,0.32,WUHU216HW,2013-01-22 06:43:00,
2013-01-22 01:44:00,9.0,5.7,29.45,SW,225,3.4,4.9,86,0.16,,,0.32,WUHU216HW,2013-01-22 06:44:00,
2013-01-22 01:48:00,9.0,5.7,29.45,WSW,248,2.2,5.1,86,0.16,,,0.32,WUHU216HW,2013-01-22 06:48:00,
2013-01-22 01:49:00,9.0,5.7,29.45,SW,225,3.8,5.1,86,0.16,,,0.32,WUHU216HW,2013-01-22 06:49:00,
2013-01-22 01:53:00,9.0,5.7,29.45,WNW,293,2.9,5.1,86,0.16,,,0.32,WUHU216HW,2013-01-22 06:53:00,
2013-01-22 01:54:00,9.0,5.7,29.45,WNW,293,2.9,5.1,86,0.16,,,0.32,WUHU216HW,2013-01-22 06:54:00,
2013-01-22 01:55:00,8.8,5.5,29.45,NW,315,1.1,5.1,86,0.16,,,0.32,WUHU216HW,2013-01-22 06:55:00,
2013-01-22 01:58:00,8.8,5.5,29.46,SW,225,1.1,6.3,86,0.16,,,0.32,WUHU216HW,2013-01-22 06:58:00,
2013-01-22 01:59:00,8.8,5.5,29.46,SW,225,1.1,6.3,86,0.16,,,0.32,WUHU216HW,2013-01-22 06:59:00,
2013-01-22 02:00:00,8.8,5.5,29.46,NNE,23,0.9,6.3,86,0.16,,,0.48,WUHU216HW,2013-01-22 07:00:00,
2013-01-22 02:04:00,8.8,5.5,29.46,NW,315,4.0,6.3,86,0.32,,,0.64,WUHU216HW,2013-01-22 07:04:00,
2013-01-22 02:05:00,8.8,5.5,29.46,SSW,203,1.6,6.3,86,0.32,,,0.64,WUHU216HW,2013-01-22 07:05:00,
2013-01-22 02:09:00,8.8,5.5,29.46,SW,225,4.3,6.3,86,0.32,,,0.64,WUHU216HW,2013-01-22 07:09:00,
2013-01-22 02:10:00,8.8,5.5,29.46,SW,225,5.4,5.4,86,0.32,,,0.64,WUHU216HW,2013-01-22 07:10:00,
2013-01-22 02:14:00,8.8,5.5,29.46,South,180,1.1,5.4,86,0.32,,,0.64,WUHU216HW,2013-01-22 07:14:00,
2013-01-22 02:15:00,8.6,5.3,29.47,WNW,293,3.1,5.4,86,0.32,,,0.64,WUHU216HW,2013-01-22 07:15:00,
2013-01-22 02:19:00,8.6,5.3,29.46,West,270,2.5,5.4,86,0.32,,,0.64,WUHU216HW,2013-01-22 07:19:00,
2013-01-22 02:20:00,8.6,5.0,29.47,WSW,248,2.2,5.4,85,0.32,,,0.64,WUHU216HW,2013-01-22 07:20:00,
2013-01-22 02:24:00,8.5,4.9,29.47,WSW,248,2.5,4.7,85,0.32,,,0.64,WUHU216HW,2013-01-22 07:24:00,
2013-01-22 02:25:00,8.5,4.9,29.47,West,270,0.4,4.3,85,0.32,,,0.64,WUHU216HW,2013-01-22 07:25:00,
2013-01-22 02:26:00,8.5,4.9,29.47,SW,225,0.7,3.1,85,0.32,,,0.64,WUHU216HW,2013-01-22 07:26:00,
2013-01-22 02:29:00,8.5,4.9,29.47,West,270,1.6,4.0,85,0.32,,,0.64,WUHU216HW,2013-01-22 07:29:00,
2013-01-22 02:30:00,8.5,4.9,29.47,WSW,248,0.4,4.0,85,0.32,,,0.64,WUHU216HW,2013-01-22 07:30:00,
2013-01-22 02:31:00,8.5,4.9,29.47,West,270,1.3,4.0,85,0.32,,,0.64,WUHU216HW,2013-01-22 07:31:00,
2013-01-22 02:34:00,8.5,4.9,29.47,NNW,338,2.5,4.0,85,0.32,,,0.64,WUHU216HW,2013-01-22 07:34:00,
2013-01-22 02:35:00,8.5,4.9,29.47,South,180,1.3,4.0,85,0.32,,,0.64,WUHU216HW,2013-01-22 07:35:00,
2013-01-22 02:36:00,8.3,4.7,29.47,West,270,2.0,4.0,85,0.32,,,0.64,WUHU216HW,2013-01-22 07:36:00,
2013-01-22 02:39:00,8.3,4.7,29.47,West,270,0.2,3.4,85,0.32,,,0.64,WUHU216HW,2013-01-22 07:39:00,
2013-01-22 02:40:00,8.3,4.7,29.47,West,270,0.4,3.4,85,0.32,,,0.64,WUHU216HW,2013-01-22 07:40:00,
2013-01-22 02:41:00,8.3,4.7,29.47,West,270,2.5,3.4,85,0.32,,,0.64,WUHU216HW,2013-01-22 07:41:00,
2013-01-22 02:44:00,8.3,4.7,29.47,NW,315,3.4,3.4,85,0.32,,,0.64,WUHU216HW,2013-01-22 07:44:00,
2013-01-22 02:45:00,8.3,4.7,29.47,SSW,203,3.4,3.8,85,0.32,,,0.64,WUHU216HW,2013-01-22 07:45:00,
2013-01-22 02:46:00,8.3,4.7,29.47,WSW,248,4.7,4.7,85,0.32,,,0.64,WUHU216HW,2013-01-22 07:46:00,
2013-01-22 02:47:00,8.3,4.7,29.47,WNW,293,1.8,4.7,85,0.32,,,0.64,WUHU216HW,2013-01-22 07:47:00,
2013-01-22 02:49:00,8.3,4.7,29.47,West,270,0.7,4.7,85,0.32,,,0.64,WUHU216HW,2013-01-22 07:49:00,
2013-01-22 02:50:00,8.3,4.7,29.47,NW,315,3.4,4.7,85,0.32,,,0.64,WUHU216HW,2013-01-22 07:50:00,
2013-01-22 02:51:00,8.3,4.7,29.47,West,270,2.2,4.7,85,0.32,,,0.64,WUHU216HW,2013-01-22 07:51:00,
2013-01-22 02:52:00,8.3,4.7,29.47,WSW,248,1.6,4.7,85,0.32,,,0.64,WUHU216HW,2013-01-22 07:52:00,
2013-01-22 02:54:00,8.3,4.7,29.47,NW,315,3.4,4.7,85,0.32,,,0.64,WUHU216HW,2013-01-22 07:54:00,
2013-01-22 02:55:00,8.3,4.7,29.47,West,270,0.7,4.7,85,0.32,,,0.64,WUHU216HW,2013-01-22 07:55:00,
2013-01-22 02:56:00,8.1,4.5,29.47,WNW,293,2.5,3.4,85,0.32,,,0.64,WUHU216HW,2013-01-22 07:56:00,
2013-01-22 02:57:00,8.1,4.5,29.48,SW,225,3.8,3.8,85,0.32,,,0.64,WUHU216HW,2013-01-22 07:57:00,
2013-01-22 03:00:00,8.1,4.5,29.47,NW,315,2.2,3.8,85,0.16,,,0.64,WUHU216HW,2013-01-22 08:00:00,
2013-01-22 03:01:00,8.1,4.5,29.47,SW,225,3.4,3.8,85,0.33,,,0.97,WUHU216HW,2013-01-22 08:01:00,
2013-01-22 03:02:00,8.1,4.5,29.48,West,270,1.8,7.6,85,0.33,,,0.97,WUHU216HW,2013-01-22 08:02:00,
2013-01-22 03:05:00,8.1,4.5,29.48,West,270,0.9,7.6,85,0.33,,,0.97,WUHU216HW,2013-01-22 08:05:00,
2013-01-22 03:06:00,8.1,4.5,29.48,WSW,248,2.5,7.6,85,0.33,,,0.97,WUHU216HW,2013-01-22 08:06:00,
2013-01-22 03:08:00,7.9,4.3,29.48,SSW,203,0.2,7.6,85,0.33,,,0.97,WUHU216HW,2013-01-22 08:08:00,
2013-01-22 03:10:00,8.1,4.5,29.48,NW,315,0.4,7.6,85,0.33,,,0.97,WUHU216HW,2013-01-22 08:10:00,
2013-01-22 03:11:00,7.9,4.3,29.48,WSW,248,1.3,7.6,85,0.33,,,0.97,WUHU216HW,2013-01-22 08:11:00,
2013-01-22 03:13:00,7.9,4.3,29.48,WSW,248,0.4,2.7,85,0.33,,,0.97,WUHU216HW,2013-01-22 08:13:00,
2013-01-22 03:15:00,7.9,4.3,29.48,WNW,293,1.3,3.4,85,0.33,,,0.97,WUHU216HW,2013-01-22 08:15:00,
2013-01-22 03:16:00,7.9,4.3,29.48,West,270,0.7,3.4,85,0.33,,,0.97,WUHU216HW,2013-01-22 08:16:00,
2013-01-22 03:18:00,7.9,4.3,29.48,West,270,1.3,3.6,85,0.33,,,0.97,WUHU216HW,2013-01-22 08:18:00,
2013-01-22 03:20:00,7.9,4.3,29.48,WNW,293,1.6,3.6,85,0.33,,,0.97,WUHU216HW,2013-01-22 08:20:00,
2013-01-22 03:22:00,7.9,4.3,29.48,South,180,3.1,3.6,85,0.33,,,0.97,WUHU216HW,2013-01-22 08:22:00,
2013-01-22 03:23:00,7.9,4.3,29.48,West,270,1.3,3.6,85,0.33,,,0.97,WUHU216HW,2013-01-22 08:23:00,
2013-01-22 03:25:00,7.7,4.1,29.48,SW,225,2.7,3.6,85,0.33,,,0.97,WUHU216HW,2013-01-22 08:25:00,
2013-01-22 03:27:00,7.7,4.1,29.48,WSW,248,0.9,3.6,85,0.33,,,0.97,WUHU216HW,2013-01-22 08:27:00,
2013-01-22 03:28:00,7.7,4.1,29.48,NW,315,2.5,3.4,85,0.33,,,0.97,WUHU216HW,2013-01-22 08:28:00,
2013-01-22 03:31:00,7.7,4.1,29.48,WSW,248,2.7,3.1,85,0.33,,,0.97,WUHU216HW,2013-01-22 08:31:00,
2013-01-22 03:32:00,7.6,3.7,29.48,WNW,293,0.4,2.9,84,0.33,,,0.97,WUHU216HW,2013-01-22 08:32:00,
2013-01-22 03:33:00,7.6,4.0,29.48,West,270,1.6,2.9,85,0.33,,,0.97,WUHU216HW,2013-01-22 08:33:00,
2013-01-22 03:36:00,7.6,3.7,29.48,SW,225,0.2,2.9,84,0.33,,,0.97,WUHU216HW,2013-01-22 08:36:00,
2013-01-22 03:37:00,7.6,3.7,29.48,WSW,248,0.2,2.9,84,0.33,,,0.97,WUHU216HW,2013-01-22 08:37:00,
2013-01-22 03:38:00,7.6,3.7,29.48,WSW,248,1.6,2.7,84,0.33,,,0.97,WUHU216HW,2013-01-22 08:38:00,
2013-01-22 03:41:00,7.6,4.0,29.48,West,270,0.4,2.5,85,0.33,,,0.97,WUHU216HW,2013-01-22 08:41:00,
2013-01-22 03:42:00,7.6,4.0,29.48,SW,225,0.4,2.5,85,0.33,,,0.97,WUHU216HW,2013-01-22 08:42:00,
2013-01-22 03:44:00,7.6,3.7,29.48,SW,225,0.4,2.5,84,0.33,,,0.97,WUHU216HW,2013-01-22 08:44:00,
2013-01-22 03:46:00,7.6,3.7,29.48,SW,225,1.1,2.5,84,0.33,,,0.97,WUHU216HW,2013-01-22 08:46:00,
2013-01-22 03:47:00,7.6,3.7,29.48,SW,225,0.9,2.5,84,0.33,,,0.97,WUHU216HW,2013-01-22 08:47:00,
2013-01-22 03:49:00,7.6,3.7,29.49,WSW,248,2.2,4.0,84,0.33,,,0.97,WUHU216HW,2013-01-22 08:49:00,
2013-01-22 03:51:00,7.6,4.0,29.48,WSW,248,1.8,4.0,85,0.33,,,0.97,WUHU216HW,2013-01-22 08:51:00,
2013-01-22 03:52:00,7.6,3.7,29.48,West,270,1.1,4.0,84,0.33,,,0.97,WUHU216HW,2013-01-22 08:52:00,
2013-01-22 03:53:00,7.6,3.7,29.48,West,270,1.8,4.0,84,0.33,,,0.97,WUHU216HW,2013-01-22 08:53:00,
2013-01-22 03:54:00,7.6,3.7,29.48,SW,225,1.8,4.0,84,0.33,,,0.97,WUHU216HW,2013-01-22 08:54:00,
2013-01-22 03:56:00,7.6,3.7,29.48,West,270,0.7,4.0,84,0.33,,,0.97,WUHU216HW,2013-01-22 08:56:00,
2013-01-22 03:57:00,7.6,3.7,29.48,NNE,23,1.6,4.0,84,0.33,,,0.97,WUHU216HW,2013-01-22 08:57:00,
2013-01-22 03:58:00,7.6,3.7,29.48,NNE,23,1.6,4.0,84,0.33,,,0.97,WUHU216HW,2013-01-22 08:58:00,
2013-01-22 04:00:00,7.6,3.7,29.48,NNE,23,0.0,3.4,84,0.16,,,0.97,WUHU216HW,2013-01-22 09:00:00,
2013-01-22 04:01:00,7.6,3.7,29.48,NNE,23,0.0,3.4,84,0.16,,,1.13,WUHU216HW,2013-01-22 09:01:00,
2013-01-22 04:03:00,7.6,3.7,29.49,SW,225,2.0,3.4,84,0.16,,,1.13,WUHU216HW,2013-01-22 09:03:00,
2013-01-22 04:05:00,7.6,3.7,29.48,West,270,1.8,3.4,84,0.16,,,1.13,WUHU216HW,2013-01-22 09:05:00,
2013-01-22 04:06:00,7.6,3.7,29.49,SW,225,2.0,2.0,84,0.16,,,1.13,WUHU216HW,2013-01-22 09:06:00,
2013-01-22 04:08:00,7.6,3.7,29.48,SSW,203,1.6,4.0,84,0.16,,,1.13,WUHU216HW,2013-01-22 09:08:00,
2013-01-22 04:10:00,7.6,4.0,29.49,NW,315,0.4,4.0,85,0.16,,,1.13,WUHU216HW,2013-01-22 09:10:00,
2013-01-22 04:11:00,7.6,3.7,29.48,WSW,248,0.4,4.0,84,0.16,,,1.13,WUHU216HW,2013-01-22 09:11:00,
2013-01-22 04:13:00,7.6,3.7,29.49,West,270,1.3,4.0,84,0.16,,,1.13,WUHU216HW,2013-01-22 09:13:00,
2013-01-22 04:16:00,7.6,3.7,29.49,WSW,248,2.0,4.0,84,0.16,,,1.13,WUHU216HW,2013-01-22 09:16:00,
2013-01-22 04:18:00,7.6,3.7,29.49,WNW,293,3.4,3.4,84,0.16,,,1.13,WUHU216HW,2013-01-22 09:18:00,
2013-01-22 04:19:00,7.6,3.7,29.49,SSW,203,1.8,3.4,84,0.16,,,1.13,WUHU216HW,2013-01-22 09:19:00,
2013-01-22 04:21:00,7.6,3.7,29.49,SW,225,0.9,3.4,84,0.16,,,1.13,WUHU216HW,2013-01-22 09:21:00,
2013-01-22 04:23:00,7.6,3.7,29.49,WNW,293,0.2,3.4,84,0.16,,,1.13,WUHU216HW,2013-01-22 09:23:00,
2013-01-22 04:24:00,7.4,3.5,29.49,SW,225,1.3,3.4,84,0.16,,,1.13,WUHU216HW,2013-01-22 09:24:00,
2013-01-22 04:26:00,7.6,3.7,29.49,West,270,1.6,3.4,84,0.16,,,1.13,WUHU216HW,2013-01-22 09:26:00,
2013-01-22 04:28:00,7.6,3.7,29.49,WNW,293,2.7,2.7,84,0.16,,,1.13,WUHU216HW,2013-01-22 09:28:00,
2013-01-22 04:29:00,7.6,3.7,29.49,SW,225,0.4,2.7,84,0.16,,,1.13,WUHU216HW,2013-01-22 09:29:00,
2013-01-22 04:31:00,7.6,3.7,29.49,West,270,0.9,2.7,84,0.16,,,1.13,WUHU216HW,2013-01-22 09:31:00,
2013-01-22 04:33:00,7.6,3.7,29.49,West,270,0.4,2.7,84,0.16,,,1.13,WUHU216HW,2013-01-22 09:33:00,
2013-01-22 04:34:00,7.6,3.7,29.49,WSW,248,2.0,2.7,84,0.16,,,1.13,WUHU216HW,2013-01-22 09:34:00,
2013-01-22 04:36:00,7.6,3.7,29.49,West,270,1.8,3.4,84,0.16,,,1.13,WUHU216HW,2013-01-22 09:36:00,
2013-01-22 04:38:00,7.6,3.7,29.49,SSW,203,1.6,3.4,84,0.16,,,1.13,WUHU216HW,2013-01-22 09:38:00,
2013-01-22 04:39:00,7.6,3.7,29.49,WSW,248,0.2,3.4,84,0.16,,,1.13,WUHU216HW,2013-01-22 09:39:00,
2013-01-22 04:41:00,7.6,3.7,29.50,WSW,248,0.9,3.4,84,0.16,,,1.13,WUHU216HW,2013-01-22 09:41:00,
2013-01-22 04:42:00,7.6,3.7,29.50,WSW,248,1.3,3.4,84,0.16,,,1.13,WUHU216HW,2013-01-22 09:42:00,
2013-01-22 04:43:00,7.6,3.7,29.50,WSW,248,1.1,3.4,84,0.16,,,1.13,WUHU216HW,2013-01-22 09:43:00,
2013-01-22 04:44:00,7.6,3.7,29.50,WSW,248,0.4,3.4,84,0.16,,,1.13,WUHU216HW,2013-01-22 09:44:00,
2013-01-22 04:46:00,7.6,3.7,29.50,SW,225,1.1,2.0,84,0.16,,,1.13,WUHU216HW,2013-01-22 09:46:00,
2013-01-22 04:47:00,7.6,3.7,29.50,SW,225,1.1,2.0,84,0.16,,,1.13,WUHU216HW,2013-01-22 09:47:00,
2013-01-22 04:48:00,7.6,3.7,29.50,NNW,338,0.2,2.0,84,0.16,,,1.13,WUHU216HW,2013-01-22 09:48:00,
2013-01-22 04:49:00,7.6,3.7,29.50,NNW,338,0.4,2.0,84,0.16,,,1.13,WUHU216HW,2013-01-22 09:49:00,
2013-01-22 04:52:00,7.6,3.7,29.50,NNW,338,0.4,2.0,84,0.16,,,1.13,WUHU216HW,2013-01-22 09:52:00,
2013-01-22 04:54:00,7.6,3.7,29.50,NNW,338,0.7,2.0,84,0.16,,,1.13,WUHU216HW,2013-01-22 09:54:00,
2013-01-22 04:55:00,7.6,3.7,29.50,NNW,338,0.2,2.0,84,0.16,,,1.13,WUHU216HW,2013-01-22 09:55:00,
2013-01-22 04:57:00,7.6,3.7,29.50,WNW,293,0.2,1.3,84,0.16,,,1.13,WUHU216HW,2013-01-22 09:57:00,
2013-01-22 04:59:00,7.6,3.7,29.50,West,270,0.4,2.0,84,0.16,,,1.13,WUHU216HW,2013-01-22 09:59:00,
2013-01-22 05:00:00,7.6,3.7,29.50,WSW,248,1.1,2.0,84,0.16,,,1.13,WUHU216HW,2013-01-22 10:00:00,
2013-01-22 05:02:00,7.6,3.7,29.50,WSW,248,0.4,2.0,84,0.16,,,1.29,WUHU216HW,2013-01-22 10:02:00,
2013-01-22 05:05:00,7.7,3.9,29.50,WSW,248,1.8,2.0,84,0.16,,,1.29,WUHU216HW,2013-01-22 10:05:00,
2013-01-22 05:06:00,7.7,3.9,29.50,WSW,248,1.6,2.0,84,0.16,,,1.29,WUHU216HW,2013-01-22 10:06:00,
2013-01-22 05:07:00,7.7,3.9,29.50,WSW,248,0.7,2.0,84,0.16,,,1.29,WUHU216HW,2013-01-22 10:07:00,
2013-01-22 05:10:00,7.7,3.9,29.50,WSW,248,1.3,2.0,84,0.16,,,1.29,WUHU216HW,2013-01-22 10:10:00,
2013-01-22 05:11:00,7.7,3.9,29.50,WSW,248,0.4,2.0,84,0.16,,,1.29,WUHU216HW,2013-01-22 10:11:00,
2013-01-22 05:12:00,7.7,3.9,29.50,WSW,248,0.0,2.0,84,0.16,,,1.29,WUHU216HW,2013-01-22 10:12:00,
2013-01-22 05:13:00,7.7,3.9,29.50,WSW,248,0.0,2.0,84,0.16,,,1.29,WUHU216HW,2013-01-22 10:13:00,
2013-01-22 05:15:00,7.9,4.1,29.50,WSW,248,1.1,1.8,84,0.16,,,1.29,WUHU216HW,2013-01-22 10:15:00,
2013-01-22 05:16:00,7.9,4.1,29.50,WSW,248,0.2,1.3,84,0.16,,,1.29,WUHU216HW,2013-01-22 10:16:00,
2013-01-22 05:18:00,7.9,3.8,29.50,WSW,248,0.2,1.3,83,0.16,,,1.29,WUHU216HW,2013-01-22 10:18:00,
2013-01-22 05:20:00,7.9,3.8,29.50,WSW,248,1.1,1.3,83,0.16,,,1.29,WUHU216HW,2013-01-22 10:20:00,
2013-01-22 05:21:00,7.9,3.8,29.50,WSW,248,1.1,2.5,83,0.16,,,1.29,WUHU216HW,2013-01-22 10:21:00,
2013-01-22 05:23:00,7.9,4.1,29.50,WSW,248,0.4,2.5,84,0.16,,,1.29,WUHU216HW,2013-01-22 10:23:00,
2013-01-22 05:25:00,7.9,4.1,29.50,NNW,338,0.2,4.5,84,0.16,,,1.29,WUHU216HW,2013-01-22 10:25:00,
2013-01-22 05:26:00,7.9,4.1,29.50,North,0,0.7,4.5,84,0.16,,,1.29,WUHU216HW,2013-01-22 10:26:00,
2013-01-22 05:28:00,8.1,4.2,29.50,NW,315,0.9,4.5,84,0.16,,,1.29,WUHU216HW,2013-01-22 10:28:00,
2013-01-22 05:30:00,8.1,4.2,29.50,West,270,1.1,4.5,84,0.16,,,1.29,WUHU216HW,2013-01-22 10:30:00,
2013-01-22 05:31:00,8.1,4.2,29.51,NNW,338,0.4,5.1,84,0.16,,,1.29,WUHU216HW,2013-01-22 10:31:00,
2013-01-22 05:33:00,8.1,4.2,29.51,WSW,248,1.1,5.1,84,0.16,,,1.29,WUHU216HW,2013-01-22 10:33:00,
2013-01-22 05:35:00,8.1,4.2,29.51,WNW,293,0.7,5.1,84,0.16,,,1.29,WUHU216HW,2013-01-22 10:35:00,
2013-01-22 05:36:00,8.1,4.2,29.51,NW,315,1.3,5.1,84,0.16,,,1.29,WUHU216HW,2013-01-22 10:36:00,
2013-01-22 05:38:00,8.1,4.2,29.51,WNW,293,1.1,5.1,84,0.16,,,1.29,WUHU216HW,2013-01-22 10:38:00,
2013-01-22 05:40:00,8.1,4.2,29.51,WNW,293,1.6,5.1,84,0.16,,,1.29,WUHU216HW,2013-01-22 10:40:00,
2013-01-22 05:42:00,8.1,4.2,29.51,WNW,293,2.0,2.9,84,0.16,,,1.29,WUHU216HW,2013-01-22 10:42:00,
2013-01-22 05:43:00,8.3,4.4,29.51,NW,315,0.4,2.9,84,0.16,,,1.29,WUHU216HW,2013-01-22 10:43:00,
2013-01-22 05:45:00,8.1,4.2,29.51,NNW,338,3.4,3.4,84,0.16,,,1.29,WUHU216HW,2013-01-22 10:45:00,
2013-01-22 05:47:00,8.1,4.2,29.51,WSW,248,0.4,3.4,84,0.16,,,1.29,WUHU216HW,2013-01-22 10:47:00,
2013-01-22 05:48:00,8.1,4.2,29.51,NNW,338,1.1,3.4,84,0.16,,,1.29,WUHU216HW,2013-01-22 10:48:00,
2013-01-22 05:49:00,8.1,4.2,29.51,NW,315,0.4,3.4,84,0.16,,,1.29,WUHU216HW,2013-01-22 10:49:00,
2013-01-22 05:50:00,8.1,4.2,29.51,West,270,1.1,3.4,84,0.16,,,1.29,WUHU216HW,2013-01-22 10:50:00,
2013-01-22 05:52:00,8.1,4.0,29.51,WNW,293,0.4,3.4,83,0.16,,,1.29,WUHU216HW,2013-01-22 10:52:00,
2013-01-22 05:53:00,8.1,4.0,29.51,West,270,2.2,3.4,83,0.16,,,1.29,WUHU216HW,2013-01-22 10:53:00,
2013-01-22 05:54:00,8.1,4.0,29.51,WSW,248,2.5,3.4,83,0.16,,,1.29,WUHU216HW,2013-01-22 10:54:00,
2013-01-22 05:55:00,8.1,4.0,29.51,West,270,2.9,4.0,83,0.16,,,1.29,WUHU216HW,2013-01-22 10:55:00,
2013-01-22 05:57:00,8.1,4.0,29.52,West,270,4.9,5.4,83,0.16,,,1.29,WUHU216HW,2013-01-22 10:57:00,
2013-01-22 05:58:00,7.9,3.8,29.51,West,270,5.1,5.4,83,0.16,,,1.29,WUHU216HW,2013-01-22 10:58:00,
2013-01-22 05:59:00,7.9,3.8,29.51,West,270,0.4,5.4,83,0.16,,,1.29,WUHU216HW,2013-01-22 10:59:00,
2013-01-22 06:00:00,7.9,3.8,29.52,NW,315,0.4,5.4,83,0.17,,,1.46,WUHU216HW,2013-01-22 11:00:00,
2013-01-22 06:02:00,7.9,3.8,29.52,SW,225,0.4,5.4,83,0.17,,,1.46,WUHU216HW,2013-01-22 11:02:00,
2013-01-22 06:03:00,7.9,3.8,29.52,South,180,0.0,5.4,83,0.17,,,1.46,WUHU216HW,2013-01-22 11:03:00,
2013-01-22 06:04:00,7.7,3.6,29.52,South,180,0.0,5.4,83,0.17,,,1.46,WUHU216HW,2013-01-22 11:04:00,
2013-01-22 06:05:00,7.9,3.8,29.52,WSW,248,2.0,5.4,83,0.17,,,1.46,WUHU216HW,2013-01-22 11:05:00,
2013-01-22 06:07:00,7.7,3.4,29.52,WNW,293,4.0,5.1,82,0.17,,,1.46,WUHU216HW,2013-01-22 11:07:00,
2013-01-22 06:08:00,7.7,3.4,29.52,West,270,2.9,4.7,82,0.17,,,1.46,WUHU216HW,2013-01-22 11:08:00,
2013-01-22 06:09:00,7.7,3.4,29.52,WSW,248,3.6,4.7,82,0.17,,,1.46,WUHU216HW,2013-01-22 11:09:00,
2013-01-22 06:11:00,7.7,3.4,29.52,West,270,1.1,4.7,82,0.17,,,1.46,WUHU216HW,2013-01-22 11:11:00,
2013-01-22 06:12:00,7.7,3.4,29.52,NNW,338,1.1,4.7,82,0.17,,,1.46,WUHU216HW,2013-01-22 11:12:00,
2013-01-22 06:14:00,7.6,3.4,29.52,WSW,248,0.0,4.7,83,0.17,,,1.46,WUHU216HW,2013-01-22 11:14:00,
2013-01-22 06:17:00,7.6,3.4,29.52,SSW,203,0.0,4.0,83,0.17,,,1.46,WUHU216HW,2013-01-22 11:17:00,
2013-01-22 06:19:00,7.6,3.3,29.53,WSW,248,2.9,3.6,82,0.17,,,1.46,WUHU216HW,2013-01-22 11:19:00,
2013-01-22 06:22:00,7.6,3.3,29.53,SSW,203,2.5,3.4,82,0.17,,,1.46,WUHU216HW,2013-01-22 11:22:00,
2013-01-22 06:24:00,7.6,3.3,29.53,NNW,338,0.4,4.0,82,0.17,,,1.46,WUHU216HW,2013-01-22 11:24:00,
2013-01-22 06:27:00,7.6,3.3,29.53,WNW,293,1.6,4.0,82,0.17,,,1.46,WUHU216HW,2013-01-22 11:27:00,
2013-01-22 06:29:00,7.6,3.3,29.53,NW,315,1.1,4.0,82,0.17,,,1.46,WUHU216HW,2013-01-22 11:29:00,
2013-01-22 06:32:00,7.6,3.3,29.53,NW,315,1.1,4.0,82,0.17,,,1.46,WUHU216HW,2013-01-22 11:32:00,
2013-01-22 06:33:00,7.6,3.3,29.53,NW,315,1.1,4.0,82,0.17,,,1.46,WUHU216HW,2013-01-22 11:33:00,
2013-01-22 06:34:00,7.6,3.3,29.53,WSW,248,0.4,4.0,82,0.17,,,1.46,WUHU216HW,2013-01-22 11:34:00,
2013-01-22 06:37:00,7.6,3.4,29.53,WSW,248,1.1,4.0,83,0.17,,,1.46,WUHU216HW,2013-01-22 11:37:00,
2013-01-22 06:38:00,7.6,3.4,29.53,NW,315,0.2,4.0,83,0.17,,,1.46,WUHU216HW,2013-01-22 11:38:00,
2013-01-22 06:39:00,7.6,3.4,29.54,South,180,1.1,4.0,83,0.17,,,1.46,WUHU216HW,2013-01-22 11:39:00,
2013-01-22 06:40:00,7.6,3.4,29.54,South,180,1.1,4.0,83,0.17,,,1.46,WUHU216HW,2013-01-22 11:40:00,
2013-01-22 06:42:00,7.6,3.3,29.54,NW,315,1.6,5.4,82,0.17,,,1.46,WUHU216HW,2013-01-22 11:42:00,
2013-01-22 06:44:00,7.6,3.4,29.54,West,270,1.6,5.4,83,0.17,,,1.46,WUHU216HW,2013-01-22 11:44:00,
2013-01-22 06:45:00,7.6,3.4,29.54,NW,315,1.1,5.4,83,0.17,,,1.46,WUHU216HW,2013-01-22 11:45:00,
2013-01-22 06:48:00,7.4,3.1,29.54,West,270,2.7,5.4,82,0.17,,,1.46,WUHU216HW,2013-01-22 11:48:00,
2013-01-22 06:49:00,7.4,2.8,29.54,WSW,248,2.5,5.4,81,0.17,,,1.46,WUHU216HW,2013-01-22 11:49:00,
2013-01-22 06:50:00,7.4,3.1,29.54,NW,315,1.1,5.4,82,0.17,,,1.46,WUHU216HW,2013-01-22 11:50:00,
2013-01-22 06:53:00,7.2,2.9,29.54,WNW,293,0.7,4.5,82,0.17,,,1.46,WUHU216HW,2013-01-22 11:53:00,
2013-01-22 06:54:00,7.2,2.9,29.54,NNW,338,3.4,4.5,82,0.17,,,1.46,WUHU216HW,2013-01-22 11:54:00,
2013-01-22 06:55:00,7.2,2.6,29.54,WSW,248,4.0,4.5,81,0.17,,,1.46,WUHU216HW,2013-01-22 11:55:00,
2013-01-22 06:58:00,7.2,2.3,29.54,WNW,293,1.6,4.7,80,0.17,,,1.46,WUHU216HW,2013-01-22 11:58:00,
2013-01-22 06:59:00,7.0,2.4,29.54,SW,225,0.4,4.7,81,0.17,,,1.46,WUHU216HW,2013-01-22 11:59:00,
2013-01-22 07:00:00,7.0,2.4,29.54,North,0,0.4,4.7,81,0.16,,,1.62,WUHU216HW,2013-01-22 12:00:00,
2013-01-22 07:01:00,7.0,2.4,29.54,WSW,248,0.9,4.7,81,0.16,,,1.62,WUHU216HW,2013-01-22 12:01:00,
2013-01-22 07:03:00,7.0,2.2,29.54,NW,315,1.3,4.7,80,0.16,,,1.62,WUHU216HW,2013-01-22 12:03:00,
2013-01-22 07:04:00,7.0,2.2,29.54,West,270,0.4,4.7,80,0.16,,,1.62,WUHU216HW,2013-01-22 12:04:00,
2013-01-22 07:05:00,7.0,2.2,29.54,NNW,338,0.9,4.7,80,0.16,,,1.62,WUHU216HW,2013-01-22 12:05:00,
2013-01-22 07:06:00,6.8,2.0,29.54,NNW,338,0.4,2.5,80,0.16,,,1.62,WUHU216HW,2013-01-22 12:06:00,
2013-01-22 07:08:00,6.8,2.0,29.54,North,0,0.0,2.5,80,0.16,,,1.62,WUHU216HW,2013-01-22 12:08:00,
2013-01-22 07:09:00,6.8,2.0,29.54,NW,315,0.2,2.5,80,0.16,,,1.62,WUHU216HW,2013-01-22 12:09:00,
2013-01-22 07:10:00,6.8,2.0,29.54,WNW,293,0.4,2.5,80,0.16,,,1.62,WUHU216HW,2013-01-22 12:10:00,
2013-01-22 07:12:00,6.8,2.0,29.54,NNW,338,0.4,2.5,80,0.16,,,1.62,WUHU216HW,2013-01-22 12:12:00,
2013-01-22 07:13:00,6.8,2.0,29.54,North,0,1.8,2.5,80,0.16,,,1.62,WUHU216HW,2013-01-22 12:13:00,
2013-01-22 07:14:00,6.8,2.0,29.54,WNW,293,0.9,2.5,80,0.16,,,1.62,WUHU216HW,2013-01-22 12:14:00,
2013-01-22 07:15:00,6.8,2.0,29.54,WSW,248,0.0,2.5,80,0.16,,,1.62,WUHU216HW,2013-01-22 12:15:00,
2013-01-22 07:17:00,6.8,2.0,29.54,SSW,203,1.3,2.5,80,0.16,,,1.62,WUHU216HW,2013-01-22 12:17:00,
2013-01-22 07:18:00,6.8,2.0,29.54,West,270,1.3,2.5,80,0.16,,,1.62,WUHU216HW,2013-01-22 12:18:00,
2013-01-22 07:19:00,6.8,2.0,29.54,NW,315,0.9,2.5,80,0.16,,,1.62,WUHU216HW,2013-01-22 12:19:00,
2013-01-22 07:20:00,6.8,2.0,29.54,WSW,248,4.9,4.9,80,0.16,,,1.62,WUHU216HW,2013-01-22 12:20:00,
2013-01-22 07:22:00,6.8,2.0,29.54,West,270,0.9,4.9,80,0.16,,,1.62,WUHU216HW,2013-01-22 12:22:00,
2013-01-22 07:23:00,6.8,2.0,29.54,West,270,2.5,4.9,80,0.16,,,1.62,WUHU216HW,2013-01-22 12:23:00,
2013-01-22 07:24:00,6.8,2.0,29.54,WSW,248,1.3,4.9,80,0.16,,,1.62,WUHU216HW,2013-01-22 12:24:00,
2013-01-22 07:25:00,6.8,2.0,29.54,West,270,4.3,4.9,80,0.16,,,1.62,WUHU216HW,2013-01-22 12:25:00,
2013-01-22 07:27:00,6.8,2.0,29.54,NW,315,0.7,4.9,80,0.16,,,1.62,WUHU216HW,2013-01-22 12:27:00,
2013-01-22 07:28:00,6.8,2.0,29.54,NNW,338,0.7,4.9,80,0.16,,,1.62,WUHU216HW,2013-01-22 12:28:00,
2013-01-22 07:29:00,6.8,2.0,29.54,North,0,0.0,4.9,80,0.16,,,1.62,WUHU216HW,2013-01-22 12:29:00,
2013-01-22 07:30:00,6.8,2.0,29.54,WNW,293,1.8,4.3,80,0.16,,,1.62,WUHU216HW,2013-01-22 12:30:00,
2013-01-22 07:33:00,6.8,2.0,29.54,West,270,2.7,4.3,80,0.16,,,1.62,WUHU216HW,2013-01-22 12:33:00,
2013-01-22 07:34:00,6.8,2.3,29.55,NW,315,0.2,4.3,81,0.16,,,1.62,WUHU216HW,2013-01-22 12:34:00,
2013-01-22 07:35:00,6.8,2.3,29.55,West,270,1.1,4.3,81,0.16,,,1.62,WUHU216HW,2013-01-22 12:35:00,
2013-01-22 07:38:00,6.8,2.3,29.55,West,270,1.3,4.0,81,0.16,,,1.62,WUHU216HW,2013-01-22 12:38:00,
2013-01-22 07:40:00,6.8,2.3,29.55,West,270,1.3,4.0,81,0.16,,,1.62,WUHU216HW,2013-01-22 12:40:00,
2013-01-22 07:41:00,6.8,2.3,29.55,WNW,293,0.4,4.0,81,0.16,,,1.62,WUHU216HW,2013-01-22 12:41:00,
2013-01-22 07:43:00,6.8,2.3,29.55,WSW,248,3.6,4.3,81,0.16,,,1.62,WUHU216HW,2013-01-22 12:43:00,
2013-01-22 07:45:00,6.8,2.3,29.55,NW,315,0.9,4.3,81,0.16,,,1.62,WUHU216HW,2013-01-22 12:45:00,
2013-01-22 07:46:00,6.8,2.5,29.55,NW,315,3.1,4.3,82,0.16,,,1.62,WUHU216HW,2013-01-22 12:46:00,
2013-01-22 07:48:00,6.8,2.5,29.55,NW,315,2.5,4.3,82,0.16,,,1.62,WUHU216HW,2013-01-22 12:48:00,
2013-01-22 07:50:00,6.8,2.5,29.55,NNW,338,1.1,4.3,82,0.16,,,1.62,WUHU216HW,2013-01-22 12:50:00,
2013-01-22 07:51:00,6.8,2.7,29.55,SW,225,0.7,4.3,83,0.16,,,1.62,WUHU216HW,2013-01-22 12:51:00,
2013-01-22 07:53:00,6.8,2.7,29.55,NNW,338,1.1,3.8,83,0.16,,,1.62,WUHU216HW,2013-01-22 12:53:00,
2013-01-22 07:56:00,6.8,2.5,29.55,NW,315,2.0,4.0,82,0.16,,,1.62,WUHU216HW,2013-01-22 12:56:00,
2013-01-22 07:57:00,6.8,2.7,29.55,WNW,293,1.8,4.5,83,0.16,,,1.62,WUHU216HW,2013-01-22 12:57:00,
2013-01-22 07:58:00,6.8,2.7,29.55,NW,315,0.2,4.5,83,0.16,,,1.62,WUHU216HW,2013-01-22 12:58:00,
2013-01-22 07:59:00,6.8,2.7,29.55,West,270,3.6,4.5,83,0.16,,,1.62,WUHU216HW,2013-01-22 12:59:00,
2013-01-22 08:01:00,6.8,2.7,29.55,West,270,1.1,4.5,83,0.16,,,1.78,WUHU216HW,2013-01-22 13:01:00,
2013-01-22 08:02:00,6.8,2.7,29.56,West,270,1.1,4.5,83,0.16,,,1.78,WUHU216HW,2013-01-22 13:02:00,
2013-01-22 08:04:00,6.8,2.7,29.56,West,270,1.1,4.5,83,0.16,,,1.78,WUHU216HW,2013-01-22 13:04:00,
2013-01-22 08:06:00,6.8,2.7,29.56,North,0,1.1,3.6,83,0.16,,,1.78,WUHU216HW,2013-01-22 13:06:00,
2013-01-22 08:08:00,6.8,2.7,29.56,WSW,248,1.1,3.6,83,0.16,,,1.78,WUHU216HW,2013-01-22 13:08:00,
2013-01-22 08:09:00,6.8,2.7,29.56,West,270,1.1,2.9,83,0.16,,,1.78,WUHU216HW,2013-01-22 13:09:00,
2013-01-22 08:11:00,6.8,2.7,29.56,WNW,293,3.4,3.4,83,0.16,,,1.78,WUHU216HW,2013-01-22 13:11:00,
2013-01-22 08:14:00,6.8,2.7,29.56,West,270,0.4,3.4,83,0.16,,,1.78,WUHU216HW,2013-01-22 13:14:00,
2013-01-22 08:15:00,6.8,2.7,29.56,NW,315,1.8,3.4,83,0.16,,,1.78,WUHU216HW,2013-01-22 13:15:00,
2013-01-22 08:17:00,6.8,2.7,29.56,West,270,1.8,4.7,83,0.16,,,1.78,WUHU216HW,2013-01-22 13:17:00,
2013-01-22 08:19:00,6.8,2.7,29.56,West,270,1.1,4.7,83,0.16,,,1.78,WUHU216HW,2013-01-22 13:19:00,
2013-01-22 08:20:00,6.8,2.7,29.57,West,270,1.1,4.7,83,0.16,,,1.78,WUHU216HW,2013-01-22 13:20:00,
2013-01-22 08:23:00,6.8,2.7,29.56,West,270,2.7,4.7,83,0.16,,,1.78,WUHU216HW,2013-01-22 13:23:00,
2013-01-22 08:24:00,6.8,2.7,29.56,NW,315,1.8,4.7,83,0.16,,,1.78,WUHU216HW,2013-01-22 13:24:00,
2013-01-22 08:25:00,6.8,2.7,29.57,SSW,203,2.2,4.7,83,0.16,,,1.78,WUHU216HW,2013-01-22 13:25:00,
2013-01-22 08:28:00,6.7,2.1,29.57,South,180,1.1,4.7,81,0.16,,,1.78,WUHU216HW,2013-01-22 13:28:00,
2013-01-22 08:29:00,6.7,2.1,29.57,NW,315,1.8,4.7,81,0.16,,,1.78,WUHU216HW,2013-01-22 13:29:00,
2013-01-22 08:30:00,6.7,2.1,29.57,South,180,0.7,4.7,81,0.16,,,1.78,WUHU216HW,2013-01-22 13:30:00,
2013-01-22 08:31:00,6.7,2.4,29.57,West,270,2.2,4.7,82,0.16,,,1.78,WUHU216HW,2013-01-22 13:31:00,
2013-01-22 08:33:00,6.7,2.1,29.57,NW,315,2.7,4.7,81,0.16,,,1.78,WUHU216HW,2013-01-22 13:33:00,
2013-01-22 08:34:00,6.8,2.0,29.57,West,270,2.5,4.7,80,0.16,,,1.78,WUHU216HW,2013-01-22 13:34:00,
2013-01-22 08:35:00,6.8,2.0,29.57,West,270,2.5,4.7,80,0.16,,,1.78,WUHU216HW,2013-01-22 13:35:00,
2013-01-22 08:37:00,6.7,1.8,29.57,South,180,0.4,4.7,80,0.16,,,1.78,WUHU216HW,2013-01-22 13:37:00,
2013-01-22 08:38:00,6.7,1.8,29.57,WNW,293,1.8,3.4,80,0.16,,,1.78,WUHU216HW,2013-01-22 13:38:00,
2013-01-22 08:39:00,6.7,1.8,29.57,NW,315,1.3,3.4,80,0.16,,,1.78,WUHU216HW,2013-01-22 13:39:00,
2013-01-22 08:40:00,6.7,1.8,29.57,NW,315,1.3,3.4,80,0.16,,,1.78,WUHU216HW,2013-01-22 13:40:00,
2013-01-22 08:42:00,6.7,1.8,29.57,NW,315,1.1,3.1,80,0.16,,,1.78,WUHU216HW,2013-01-22 13:42:00,
2013-01-22 08:43:00,6.7,1.8,29.57,NNW,338,1.8,3.1,80,0.16,,,1.78,WUHU216HW,2013-01-22 13:43:00,
2013-01-22 08:45:00,6.7,1.5,29.57,West,270,0.9,2.9,79,0.16,,,1.78,WUHU216HW,2013-01-22 13:45:00,
2013-01-22 08:47:00,6.5,1.6,29.57,West,270,3.8,5.1,80,0.16,,,1.78,WUHU216HW,2013-01-22 13:47:00,
2013-01-22 08:49:00,6.7,1.8,29.57,WNW,293,1.3,5.1,80,0.16,,,1.78,WUHU216HW,2013-01-22 13:49:00,
2013-01-22 08:50:00,6.8,2.0,29.58,SSW,203,0.9,5.1,80,0.16,,,1.78,WUHU216HW,2013-01-22 13:50:00,
2013-01-22 08:52:00,6.8,2.0,29.58,North,0,1.8,5.1,80,0.16,,,1.78,WUHU216HW,2013-01-22 13:52:00,
2013-01-22 08:55:00,6.8,2.0,29.58,WNW,293,0.9,5.1,80,0.16,,,1.78,WUHU216HW,2013-01-22 13:55:00,
2013-01-22 08:56:00,6.8,2.3,29.58,West,270,2.9,3.8,81,0.16,,,1.78,WUHU216HW,2013-01-22 13:56:00,
2013-01-22 08:58:00,7.0,2.2,29.58,WSW,248,1.3,3.1,80,0.16,,,1.78,WUHU216HW,2013-01-22 13:58:00,
2013-01-22 09:00:00,6.8,2.0,29.58,NW,315,2.5,4.0,80,0.00,,,1.78,WUHU216HW,2013-01-22 14:00:00,
2013-01-22 09:01:00,6.8,2.0,29.58,WNW,293,2.5,4.0,80,0.16,,,1.94,WUHU216HW,2013-01-22 14:01:00,
2013-01-22 09:03:00,7.0,2.4,29.58,WSW,248,0.4,4.3,81,0.16,,,1.94,WUHU216HW,2013-01-22 14:03:00,
2013-01-22 09:05:00,6.8,2.0,29.58,WSW,248,4.0,4.3,80,0.16,,,1.94,WUHU216HW,2013-01-22 14:05:00,
2013-01-22 09:06:00,6.8,2.0,29.58,NNE,23,0.7,4.3,80,0.16,,,1.94,WUHU216HW,2013-01-22 14:06:00,
2013-01-22 09:07:00,6.8,2.0,29.58,WSW,248,5.1,5.1,80,0.16,,,1.94,WUHU216HW,2013-01-22 14:07:00,
2013-01-22 09:08:00,7.0,2.2,29.58,West,270,1.3,5.1,80,0.16,,,1.94,WUHU216HW,2013-01-22 14:08:00,
2013-01-22 09:10:00,7.0,1.6,29.59,NNW,338,1.8,5.1,78,0.16,,,1.94,WUHU216HW,2013-01-22 14:10:00,
2013-01-22 09:12:00,7.0,1.9,29.59,West,270,0.7,5.1,79,0.16,,,1.94,WUHU216HW,2013-01-22 14:12:00,
2013-01-22 09:13:00,7.0,1.9,29.59,NW,315,1.6,5.1,79,0.16,,,1.94,WUHU216HW,2013-01-22 14:13:00,
2013-01-22 09:15:00,7.2,2.1,29.59,NW,315,1.1,5.1,79,0.16,,,1.94,WUHU216HW,2013-01-22 14:15:00,
2013-01-22 09:17:00,7.2,2.1,29.59,NW,315,0.9,4.0,79,0.16,,,1.94,WUHU216HW,2013-01-22 14:17:00,
2013-01-22 09:18:00,7.2,2.1,29.59,NNW,338,0.7,4.0,79,0.16,,,1.94,WUHU216HW,2013-01-22 14:18:00,
2013-01-22 09:21:00,7.2,1.8,29.59,NW,315,3.8,4.3,78,0.16,,,1.94,WUHU216HW,2013-01-22 14:21:00,
2013-01-22 09:22:00,7.4,2.0,29.59,West,270,0.9,4.3,78,0.16,,,1.94,WUHU216HW,2013-01-22 14:22:00,
2013-01-22 09:24:00,7.6,2.2,29.60,NW,315,3.1,4.3,78,0.16,,,1.94,WUHU216HW,2013-01-22 14:24:00,
2013-01-22 09:27:00,7.6,2.2,29.59,NNW,338,1.3,5.4,78,0.16,,,1.94,WUHU216HW,2013-01-22 14:27:00,
2013-01-22 09:29:00,7.4,1.6,29.60,NW,315,4.0,5.4,77,0.16,,,1.94,WUHU216HW,2013-01-22 14:29:00,
2013-01-22 09:32:00,7.2,1.4,29.60,NNW,338,3.1,6.9,77,0.16,,,1.94,WUHU216HW,2013-01-22 14:32:00,
2013-01-22 09:39:00,7.2,1.8,29.60,SW,225,2.0,6.9,78,0.16,,,1.94,WUHU216HW,2013-01-22 14:39:00,
2013-01-22 09:43:00,7.2,1.8,29.60,WNW,293,0.9,5.8,78,0.16,,,1.94,WUHU216HW,2013-01-22 14:43:00,
2013-01-22 09:44:00,7.2,1.8,29.60,West,270,0.9,5.8,78,0.16,,,1.94,WUHU216HW,2013-01-22 14:44:00,
2013-01-22 09:47:00,7.4,2.0,29.61,WNW,293,1.6,5.4,78,0.16,,,1.94,WUHU216HW,2013-01-22 14:47:00,
2013-01-22 09:48:00,7.4,2.0,29.61,NW,315,0.7,5.8,78,0.16,,,1.94,WUHU216HW,2013-01-22 14:48:00,
2013-01-22 09:49:00,7.4,2.0,29.61,NW,315,0.9,5.8,78,0.16,,,1.94,WUHU216HW,2013-01-22 14:49:00,
2013-01-22 09:52:00,7.6,2.2,29.61,South,180,0.2,5.8,78,0.16,,,1.94,WUHU216HW,2013-01-22 14:52:00,
2013-01-22 09:53:00,7.6,2.4,29.61,WSW,248,0.4,5.8,79,0.16,,,1.94,WUHU216HW,2013-01-22 14:53:00,
2013-01-22 09:54:00,7.6,2.4,29.61,North,0,1.3,5.8,79,0.16,,,1.94,WUHU216HW,2013-01-22 14:54:00,
2013-01-22 09:57:00,7.6,1.8,29.61,WSW,248,2.5,5.6,77,0.16,,,1.94,WUHU216HW,2013-01-22 14:57:00,
2013-01-22 09:58:00,7.6,1.5,29.61,West,270,1.1,5.6,76,0.16,,,1.94,WUHU216HW,2013-01-22 14:58:00,
2013-01-22 09:59:00,7.6,1.8,29.61,West,270,2.2,5.6,77,0.16,,,1.94,WUHU216HW,2013-01-22 14:59:00,
2013-01-22 10:02:00,7.6,1.5,29.61,NNE,23,0.9,5.6,76,0.17,,,2.11,WUHU216HW,2013-01-22 15:02:00,
2013-01-22 10:03:00,7.6,1.8,29.61,West,270,2.5,5.6,77,0.17,,,2.11,WUHU216HW,2013-01-22 15:03:00,
2013-01-22 10:04:00,7.6,1.8,29.62,West,270,1.8,5.6,77,0.17,,,2.11,WUHU216HW,2013-01-22 15:04:00,
2013-01-22 10:07:00,7.7,2.0,29.62,NW,315,2.2,3.6,77,0.17,,,2.11,WUHU216HW,2013-01-22 15:07:00,
2013-01-22 10:08:00,7.7,2.0,29.62,NE,45,3.1,4.7,77,0.17,,,2.11,WUHU216HW,2013-01-22 15:08:00,
2013-01-22 10:09:00,7.9,1.9,29.61,WNW,293,2.7,5.4,76,0.17,,,2.11,WUHU216HW,2013-01-22 15:09:00,
2013-01-22 10:12:00,7.9,1.9,29.62,West,270,4.0,5.4,76,0.17,,,2.11,WUHU216HW,2013-01-22 15:12:00,
2013-01-22 10:13:00,7.9,1.6,29.62,WNW,293,2.2,5.4,75,0.17,,,2.11,WUHU216HW,2013-01-22 15:13:00,
2013-01-22 10:14:00,8.1,1.8,29.62,NW,315,4.5,5.4,75,0.17,,,2.11,WUHU216HW,2013-01-22 15:14:00,
2013-01-22 10:18:00,7.9,1.4,29.62,SW,225,3.4,5.4,74,0.17,,,2.11,WUHU216HW,2013-01-22 15:18:00,
2013-01-22 10:19:00,7.9,1.9,29.62,SW,225,2.5,4.5,76,0.17,,,2.11,WUHU216HW,2013-01-22 15:19:00,
2013-01-22 10:23:00,8.5,2.4,29.62,North,0,0.9,4.5,76,0.17,,,2.11,WUHU216HW,2013-01-22 15:23:00,
2013-01-22 10:24:00,8.6,2.3,29.62,SW,225,2.2,4.3,75,0.17,,,2.11,WUHU216HW,2013-01-22 15:24:00,
2013-01-22 10:25:00,8.8,2.5,29.62,WSW,248,2.0,4.3,75,0.17,,,2.11,WUHU216HW,2013-01-22 15:25:00,
2013-01-22 10:28:00,9.0,3.0,29.62,SW,225,3.4,7.6,76,0.17,,,2.11,WUHU216HW,2013-01-22 15:28:00,
2013-01-22 10:29:00,8.8,2.8,29.62,NNW,338,2.5,7.6,76,0.17,,,2.11,WUHU216HW,2013-01-22 15:29:00,
2013-01-22 10:30:00,8.8,2.5,29.63,NNW,338,0.9,7.6,75,0.17,,,2.11,WUHU216HW,2013-01-22 15:30:00,
2013-01-22 10:33:00,8.6,2.3,29.62,West,270,5.4,7.6,75,0.17,,,2.11,WUHU216HW,2013-01-22 15:33:00,
2013-01-22 10:34:00,8.6,2.3,29.62,WSW,248,4.7,7.6,75,0.17,,,2.11,WUHU216HW,2013-01-22 15:34:00,
2013-01-22 10:35:00,8.6,2.3,29.63,SW,225,1.6,7.6,75,0.17,,,2.11,WUHU216HW,2013-01-22 15:35:00,
2013-01-22 10:36:00,8.5,2.2,29.63,NW,315,5.4,6.5,75,0.17,,,2.11,WUHU216HW,2013-01-22 15:36:00,
2013-01-22 10:38:00,8.3,1.7,29.63,WSW,248,1.6,5.4,74,0.17,,,2.11,WUHU216HW,2013-01-22 15:38:00,
2013-01-22 10:39:00,8.3,1.7,29.63,WNW,293,1.3,5.4,74,0.17,,,2.11,WUHU216HW,2013-01-22 15:39:00,
2013-01-22 10:40:00,8.3,1.7,29.63,SW,225,2.2,5.4,74,0.17,,,2.11,WUHU216HW,2013-01-22 15:40:00,
2013-01-22 10:42:00,8.3,1.7,29.63,West,270,1.8,5.4,74,0.17,,,2.11,WUHU216HW,2013-01-22 15:42:00,
2013-01-22 10:44:00,8.3,1.7,29.62,SW,225,0.4,5.4,74,0.17,,,2.11,WUHU216HW,2013-01-22 15:44:00,
2013-01-22 10:47:00,8.5,1.9,29.63,WNW,293,1.1,5.4,74,0.17,,,2.11,WUHU216HW,2013-01-22 15:47:00,
2013-01-22 10:49:00,8.5,1.9,29.63,West,270,6.0,6.0,74,0.17,,,2.11,WUHU216HW,2013-01-22 15:49:00,